Voltar ao catálogo

COSMOS 449

AtivoMilitarLEO
NORAD 5552·PAYLOAD·🇷🇺 Russia

Lançado Oct 13, 1971 de Plesetsk Cosmodrome

Loading…

Próximas Passagens (próximas 24 horas)

TLE

AtualizadoSource: Space-Track

Época: Sep 14, 2026, 09:11 UTC

1 05552U 71086F   26257.38277807 -.00000027  00000-0 -87232-4 0  9990
2 05552  74.0268  58.6750 0037457 206.3059 162.4946 12.38734786483532

Acompanhe COSMOS 449 em tempo real com AllMySat

Download on the App Store